Regional Weather Roundup
Issued by NWS State College, PA

Home | Current Version | Previous Version | Graphics & Text | Print | Product List | Glossary On
Versions: 1 2 3 4 5 6 7 8 9 10 11 12 13 14 15 16 17 18 19 20 21 22 23 24 25 26 27 28 29 30 31 32 33 34 35 36 37 38 39 40 41 42 43 44 45 46 47 48 49 50
000
ASUS41 KCTP 160610
RWRCTP

REGIONAL WEATHER ROUNDUP
NATIONAL WEATHER SERVICE STATE COLLEGE PA
100 AM EST TUE JAN 16 2018

Note: "fair" indicates few or no clouds below 12,000 feet with no
significant weather and/or obstructions to visibility.

* = STATION THAT DOES NOT REPORT PRECIPITATION /E.G. RAIN...SNOW...ETC/
    THUNDER OR FOG.

PAZ002>004-007>009-013>016-020>023-029>032-160700-
WESTERN PENNSYLVANIA

CITY           SKY/WX    TMP DP  RH WIND       PRES   REMARKS
ERIE           CLOUDY    25  20  81 S8        30.28S
MEADVILLE      LGT SNOW  23  22  96 SW8       30.24S FOG     WCI  14
FRANKLIN*      LGT SNOW  21  19  92 S6        30.25S FOG     WCI  13
NEW CASTLE     LGT SNOW  25  25 100 CALM      30.29S FOG
BEAVER COUNTY  NOT AVBL
BUTLER*        LGT SNOW  23  21  92 CALM      30.29R FOG
PITTSBURGH INT LGT SNOW  25  24  96 S3        30.28S
PITTSBURGH     LGT SNOW  26  22  84 SW6       30.28S FOG
INDIANA*       CLOUDY    25  18  74 S5        30.30F
LATROBE        MIX PCPN  30  23  74 SW7       30.29R
WASHINGTON CO* FLURRIES  27  25  92 SW5       30.32S
$$

PAZ004>006-010>012-017>019-024>028-033>037-041-042-045-046-049>053-160700-
CENTRAL PENNSYLVANIA

CITY           SKY/WX    TMP DP  RH WIND       PRES   REMARKS
BRADFORD       LGT SNOW  18  15  88 SE7       30.21F FOG     WCI   9
DUBOIS         LGT SNOW  18  14  84 SE9       30.23F VSB 1   WCI   7
CLEARFIELD     LGT SNOW  19  17  92 N3        30.29F FOG
JOHNSTOWN      CLOUDY    20  12  71 S9        30.23F WCI   9
ALTOONA        CLOUDY    24  16  71 S7        30.32F
STATE COLLEGE  LGT SNOW  20  18  90 SW6       30.34F WCI  13
WILLIAMSPORT   LGT SNOW  23  19  85 NE9       30.40F FOG     WCI  13
SELINSGROVE    CLOUDY    24  18  77 CALM      30.43F
FT INDIANTOWN  CLOUDY    25  18  76 CALM      30.42F
CAPITAL CITY   CLOUDY    27  18  69 E3        30.44F
HARRISBURG     CLOUDY    26  18  71 CALM      30.44F
YORK           CLOUDY    26  21  81 SE3       30.42F
$$

PAZ038>040-043-044-047-048-054-055-060>062-067>071-160700-
EASTERN PENNSYLVANIA

CITY           SKY/WX    TMP DP  RH WIND       PRES   REMARKS
SCRANTON       CLOUDY    24  17  74 E5        30.38F
MOUNT POCONO   CLOUDY    17  15  92 SE3       30.33F
ALLENTOWN      CLOUDY    27  16  63 E6        30.45F
QUAKERTOWN*    CLOUDY    27  21  80 MISG      30.45F
READING        CLOUDY    29  24  82 SE5       30.44F
LANCASTER      CLOUDY    27  20  75 CALM      30.43F
COATESVILLE    CLOUDY    28  27  93 SE5       30.44F
POTTSTOWN      CLOUDY    27  21  78 CALM      30.47F
BLUE BELL      CLOUDY    28  23  80 CALM      30.48F
DOYLESTOWN     CLOUDY    26  21  81 CALM      30.46S
WILLOW GROVE   NOT AVBL
NORTH PHILA    CLOUDY    30  23  75 NE5       30.50R
PHILADELPHIA   CLOUDY    29  23  78 NE5       30.49S
$$



USA.gov is the U.S. government's official web portal to all federal, state and local government web resources and services.